Regional Weather Roundup
Issued by NWS

Home | Current Version | Previous Version | Graphics & Text | Print | Product List | Glossary On
Versions: 1 2 3 4 5 6 7 8 9 10 11 12 13 14 15 16 17 18 19 20 21 22 23 24 25 26 27 28 29 30 31 32 33 34 35 36 37 38 39 40 41 42 43 44 45 46 47 48 49 50
537
ASUS43 KOAX 171402
RWRNE

WEATHER ROUNDUP FOR NEBRASKA
NATIONAL WEATHER SERVICE OMAHA NE
900 AM CDT TUE OCT 17 2017

NOTES: SATELLITE DATA IS BEING USED TO AUGMENT CLOUD COVER ABOVE
       12000 FEET.
       "FAIR" INDICATES FEW OR NO CLOUDS BELOW 12,000 FEET WITH NO
       SIGNIFICANT WEATHER AND/OR OBSTRUCTIONS TO VISIBILITY.


NEZ001>004-019>022-054>056-171500-
NEBRASKA PANHANDLE

CITY           SKY/WX    TMP DP  RH WIND       PRES   REMARKS
SCOTTSBLUFF    CLOUDY    33  25  72 N5        30.16F WCI  29
ALLIANCE       CLOUDY    30  25  81 W7        30.14S WCI  23
CHADRON        CLOUDY    32  24  72 SW6       30.11F WCI  26
GORDON         FAIR      35  31  86 CALM      30.12R
KIMBALL        CLOUDY    38  22  51 SW5       30.20F WCI  35
SIDNEY         CLOUDY    39  23  52 NW6       30.19S WCI  35
$$

NEZ057>060-069>072-079>082-171500-
SOUTHWEST NEBRASKA

CITY           SKY/WX    TMP DP  RH WIND       PRES   REMARKS
NORTH PLATTE   SUNNY     37  34  89 NW6       30.16R WCI  32
IMPERIAL       CLOUDY    42  29  59 W5        30.18S
LEXINGTON      SUNNY     44  37  77 NW10      30.14R
MCCOOK         SUNNY     42  35  76 W5        30.16R
OGALLALA       CLEAR     34  31  90 CALM      30.18S
$$

NEZ005>010-023>029-035>040-094-171500-
NORTH CENTRAL NEBRASKA

CITY           SKY/WX    TMP DP  RH WIND       PRES   REMARKS
VALENTINE      CLEAR     41  33  73 W7        30.09S
AINSWORTH      SUNNY     45  36  72 CALM      30.10S
BROKEN BOW     SUNNY     42  36  79 CALM      30.12R
O`NEILL        SUNNY     47  41  78 SW5       30.08S
ORD            SUNNY     42  37  82 CALM      30.10R
THEDFORD       SUNNY     40  33  77 CALM      30.14S
$$

NEZ041-046>049-061>064-073>077-083>087-171500-
SOUTH CENTRAL NEBRASKA

CITY           SKY/WX    TMP DP  RH WIND       PRES   REMARKS
GRAND ISLAND   SUNNY     44  40  85 NW7       30.10R
AURORA         SUNNY     44  39  83 CALM      30.09S
HASTINGS       SUNNY     43  37  79 W3        30.11R
HEBRON         SUNNY     51  40  67 SW7       30.11S
HOLDREGE       SUNNY     45  38  77 NW6       30.12R
KEARNEY        SUNNY     46  38  73 NW6       30.12R
YORK           SUNNY     45  41  87 CALM      30.10R
$$

NEZ011>018-030>034-042>045-171500-
NORTHEAST NEBRASKA

CITY           SKY/WX    TMP DP  RH WIND       PRES   REMARKS
NORFOLK        SUNNY     45  39  79 W5        30.07R
ALBION         SUNNY     41  38  89 CALM      30.09R
BLAIR          SUNNY     50  42  75 S7        30.10R
COLUMBUS       SUNNY     47  41  80 W3        30.10R
FREMONT        SUNNY     51  41  70 S6        30.10R
TEKAMAH        SUNNY     48  42  80 S6        30.09R
WAYNE          SUNNY     42  39  91 CALM      30.08R
$$

NEZ050>053-065>068-078-088>093-171500-
SOUTHEAST NEBRASKA

CITY           SKY/WX    TMP DP  RH WIND       PRES   REMARKS
LINCOLN        SUNNY     49  43  80 S5        30.12R
OMAHA EPPLEY   SUNNY     50  41  71 S10       30.12R
BEATRICE       SUNNY     51  43  73 S8        30.12S
FALLS CITY     SUNNY     51  41  68 S9        30.15R
NEBRASKA CITY  SUNNY     51  44  79 S9        30.13S
PLATTSMOUTH    SUNNY     49  43  78 S12       30.11S
$$

NEZ044-045-051>053-067-171500-
OMAHA AREA

CITY           SKY/WX    TMP DP  RH WIND       PRES   REMARKS
OMAHA EPPLEY   SUNNY     50  41  71 S10       30.12R
BLAIR          SUNNY     50  42  75 S7        30.10R
FREMONT        SUNNY     51  41  70 S6        30.10R
MILLARD        SUNNY     49  44  81 SE5       30.12R
PLATTSMOUTH    SUNNY     49  43  78 S12       30.11S
WAHOO          FAIR      48  42  77 S3        30.10R
$$




USA.gov is the U.S. government's official web portal to all federal, state and local government web resources and services.